Location: Borealis Mine
(38.3824°N, 118.7610°W)
Time: 18:03:12
(UTC+00:00)

IDEFIX/ARIANE 42P - Pass Details

Date: 18 September 2020
Orbit: 786 x 802 km, 98.4° (Epoch: 19 October)

Event Time Altitude Azimuth Distance (km) Brightness Sun altitude
Rises 12:20:11 0° 355° (N) 3,320 5.9 -16.2°
Reaches altitude 10° 12:23:14 10° 337° (NNW) 2,385 5.0 -15.6°
Maximum altitude 12:26:38 18° 296° (WNW) 1,894 4.1 -15.0°
Enters shadow 12:27:17 17° 287° (WNW) 1,913 4.1 -14.9°
